Location: *
(60.1759°S, 155.0663°W)
Time: 21:29:40
(UTC+00:00)

Cosmos 1689 Rocket - Pass Details

Date: 17 September 2019
Orbit: 374 x 393 km, 97.5° (Epoch: 14 October)

Event Time Altitude Azimuth Distance (km) Brightness Sun altitude
Rises 15:29:43 0° 168° (SSE) 2,321 6.3 -7.5°
Reaches altitude 10° 15:31:45 10° 175° (S) 1,460 5.2 -7.2°
Maximum altitude 15:34:42 40° 246° (WSW) 612 2.7 -6.9°
Drops below altitude 10° 15:37:37 10° 316° (NW) 1,452 4.5 -6.5°
Sets 15:39:39 0° 324° (NW) 2,306 5.6 -6.3°
